Lid_Strength_Index
14 14 14 15 14 14 15 16 17 20 19 17 18 18 17 17 15 15 15 12 10 10 9 9 9 8 8 7 7 6 6 5 5 5 4 4 3 3
14 14 15 15 15 15 15 16 17 18 19 18 17 18 17 16 15 14 15 11 11 10 10 9 9 8 8 7 7 6 6 6 5 5 4 4 3 3
15 15 15 15 15 15 16 17 17 18 19 18 18 18 19 17 16 16 15 16 15 11 9 9 9 8 8 7 7 7 6 6 6 5 5 4 4 4
15 15 15 15 16 16 16 16 18 18 18 20 20 19 18 17 16 17 15 13 14 11 9 9 8 8 8 8 8 7 7 7 6 6 6 5 4 3
14 14 15 15 15 16 17 17 18 17 19 20 19 18 18 17 17 17 16 15 13 11 10 10 9 9 8 8 8 8 7 7 6 5 4 4 3 3
15 15 15 16 16 16 17 17 18 18 19 18 18 19 18 17 17 17 16 15 15 13 11 11 10 9 9 8 8 7 6 6 5 5 5 5 4 4
15 15 15 15 14 14 15 17 17 18 18 20 18 17 19 15 16 15 16 15 15 14 14 14 14 13 11 8 8 7 7 6 5 5 4 4 4 4
17 17 17 16 15 14 14 13 13 16 19 20 20 17 15 16 15 16 16 16 16 14 15 13 11 11 11 10 8 7 6 5 5 5 5 5 4 4
17 17 17 16 16 17 15 13 13 12 12 13 16 16 16 15 15 15 15 15 15 12 12 13 12 12 11 10 7 6 6 5 5 5 5 5 5 4
18 18 18 18 17 15 16 16 15 14 14 14 15 15 15 14 14 13 14 15 13 12 12 15 12 12 11 10 7 6 5 5 5 5 5 5 5 5
17 17 17 17 14 12 14 15 16 15 13 12 11 11 10 11 11 14 15 15 16 14 13 14 13 13 12 10 9 5 4 4 4 5 5 5 5 4
17 17 15 14 12 11 14 16 18 17 16 16 16 15 14 15 11 13 16 16 16 16 15 15 13 13 15 11 10 9 8 6 5 5 5 5 5 6
17 16 16 12 12 12 12 16 16 14 15 17 17 16 15 14 13 13 13 17 16 16 14 13 15 13 13 14 11 10 10 10 10 9 7 6 6 6
16 16 15 12 13 13 14 13 12 13 17 17 17 16 15 14 14 14 14 14 14 15 14 14 15 16 14 15 14 12 12 11 11 11 11 9 7 6
15 14 13 14 14 15 14 13 14 17 17 17 16 15 15 15 15 16 16 15 16 15 14 15 15 15 15 16 15 14 13 12 11 12 12 12 12 11
15 17 15 15 15 15 16 16 16 16 15 15 16 15 15 17 17 17 17 17 17 16 15 15 15 15 16 15 15 15 14 14 13 12 13 12 11 10
16 18 19 19 19 19 18 17 16 15 15 16 16 16 16 17 17 17 17 17 17 17 17 15 14 14 14 14 16 15 15 15 14 14 14 13 12 11
18 20 20 20 20 19 18 16 16 16 16 16 17 17 18 18 18 16 16 17 18 17 17 16 15 15 14 13 12 15 15 15 14 13 13 13 13 11
20 20 20 20 19 18 17 17 17 17 17 17 18 18 18 18 16 18 18 17 17 16 16 15 14 14 16 16 12 9 13 13 12 12 12 12 12 11
20 20 20 19 18 17 17 17 17 17 17 18 18 17 17 18 18 18 17 17 17 15 14 14 14 14 14 14 13 12 10 12 12 13 12 11 11 9
20 20 18 18 17 17 17 17 18 17 16 16 19 19 18 17 17 16 16 14 13 15 15 15 13 10 11 11 13 13 11 9 10 11 11 12 12 12
19 19 18 17 17 17 17 17 18 17 18 18 18 18 17 16 16 15 15 16 15 15 15 13 12 12 12 13 14 14 13 11 9 9 8 9 11 13
19 18 18 18 17 17 17 17 17 17 17 17 17 17 16 16 14 14 14 14 15 14 13 13 12 12 13 13 13 14 14 13 12 11 10 8 8 7